Home > Weather > Weißenfels > Past weeks

Flag for Germany Weather for the Past 2 Weeks in Weißenfels, Saxony-Anhalt, Germany

Now
57 °F

Partly sunny.


Feels Like: 57 °F
Forecast: 44 / 62 °F
Wind: 3 mph from Southeast

Location: Leipzig-Schkeuditz

Current Time: Apr 30, 2016 at 12:08:47 PM

Latest Report: Apr 30, 2016 at 11:20 AM


Visibility: N/A

Pressure: 30.04 "Hg

Humidity: 48%

Dew Point: 37 °F

Location of WeißenfelsLocation

Historic Weather in Weißenfels — Graph

°F

Weißenfels Temperature Yesterday

Maximum temperature yesterday: 57 °F (at 5:50 PM)
Minimum temperature yesterday: 34 °F (at 1:20 AM)
Average temperature yesterday: 46 °F

High & Low Weather Summary for the Past Weeks

 TemperatureHumidityPressure
High61 °F (Apr 21, 4:50 PM)100% (Apr 17, 6:50 AM)30.42 "Hg (Apr 17, 6:50 AM)
Low28 °F (Apr 25, 2:20 AM)33% (Apr 22, 4:20 PM)29.47 "Hg (Apr 26, 3:20 AM)
Average45 °F70%29.91 "Hg
* Reported Apr 15 10:20 AM — Apr 30 10:20 AM, Weißenfels, Weather by CustomWeather, © 2016

Note: Actual official high and low records may vary slightly from our data, if they occured in-between our weather recording intervals... More about our weather records

Advertising

Weißenfels Weather History for the Previous 24 Hours

Scroll right to see more
 ConditionsComfort  
Time TempWeatherWind HumidityBarometerVisibility
10:20 AM
Sat, Apr 30
55 °FPartly sunny.6 mph44%30.04 "HgN/A
9:50 AM55 °FPassing clouds.8 mph47%30.04 "HgN/A
9:20 AM54 °FSunny.8 mph54%30.04 "Hg10 mi
8:50 AM52 °FSunny.8 mph62%30.04 "Hg10 mi
8:20 AM48 °FSunny.8 mph66%30.04 "Hg10 mi
7:50 AM46 °FSunny.8 mph71%30.04 "Hg10 mi
7:20 AM45 °FSunny.8 mph71%30.04 "Hg10 mi
6:50 AM43 °FSunny.8 mph76%30.04 "Hg10 mi
6:20 AM41 °FClear.9 mph76%30.04 "Hg10 mi
5:50 AM41 °FClear.8 mph76%30.04 "Hg10 mi
5:20 AM41 °FClear.8 mph76%30.04 "Hg10 mi
4:50 AM39 °FClear.8 mph81%30.04 "Hg10 mi
4:20 AM41 °FClear.8 mph76%30.04 "Hg10 mi
3:50 AM41 °FClear.9 mph76%30.04 "Hg10 mi
3:20 AM41 °FClear.8 mph76%30.04 "Hg10 mi
2:50 AM41 °FClear.7 mph76%30.04 "Hg10 mi
1:50 AM41 °FClear.7 mph76%30.04 "Hg10 mi
1:20 AM43 °FClear.7 mph71%30.04 "Hg10 mi
12:50 AM43 °FClear.8 mph71%30.04 "Hg10 mi
12:20 AM43 °FClear.7 mph66%30.04 "Hg10 mi
11:50 PM
Fri, Apr 29
43 °FClear.7 mph71%30.04 "Hg10 mi
11:20 PM43 °FClear.7 mph71%30.04 "Hg10 mi
10:50 PM43 °FClear.8 mph71%30.04 "Hg10 mi
10:20 PM43 °FClear.8 mph71%30.04 "Hg10 mi
9:50 PM45 °FClear.8 mph66%30.04 "Hg10 mi
9:20 PM45 °FSunny.7 mph66%30.04 "Hg10 mi
8:50 PM46 °FSunny.7 mph62%30.04 "Hg10 mi
8:20 PM48 °FSunny.6 mph62%30.04 "Hg10 mi
7:50 PM52 °FSunny.7 mph50%30.04 "Hg10 mi
7:20 PM54 °FSunny.9 mph44%30.04 "Hg10 mi
6:50 PM55 °FSunny.10 mph38%30.04 "Hg10 mi
6:20 PM55 °FSunny.9 mph41%30.04 "Hg10 mi
5:50 PM57 °FPassing clouds.9 mph39%30.04 "HgN/A
5:20 PM55 °FPassing clouds.9 mph38%30.04 "HgN/A
4:50 PM55 °FSunny.13 mph38%30.04 "Hg10 mi
4:20 PM55 °FSunny.10 mph41%30.07 "Hg10 mi
3:50 PM55 °FPassing clouds.10 mph38%30.07 "HgN/A
3:20 PM55 °FSunny.12 mph38%30.07 "Hg10 mi
2:50 PM55 °FSunny.12 mph38%30.07 "Hg10 mi
2:20 PM55 °FSunny.13 mph38%30.07 "Hg10 mi
1:50 PM55 °FPassing clouds.12 mph38%30.07 "HgN/A
1:20 PM54 °FSunny.12 mph41%30.07 "Hg10 mi
12:50 PM55 °FPassing clouds.9 mph38%30.07 "HgN/A
12:20 PM52 °FPassing clouds.9 mph44%30.07 "HgN/A
Weather by CustomWeather, © 2016

See weather overviewHow to use our weather pages